Year,Month,Day,Hour,Minute,Value (Times are PST for temperature in C)
2014,04,26,00,00,6.40
2014,04,26,00,01,6.40
2014,04,26,00,02,6.40
2014,04,26,00,03,6.40
2014,04,26,00,04,6.40
2014,04,26,00,05,6.40
2014,04,26,00,06,6.40
2014,04,26,00,07,6.40
2014,04,26,00,08,6.40
2014,04,26,00,09,6.40
2014,04,26,00,10,6.40
2014,04,26,00,11,6.40
2014,04,26,00,12,6.40
2014,04,26,00,13,6.40
2014,04,26,00,14,6.40
2014,04,26,00,15,6.40
2014,04,26,00,16,6.40
2014,04,26,00,17,6.30
2014,04,26,00,18,6.30
2014,04,26,00,19,6.30
2014,04,26,00,20,6.30
2014,04,26,00,21,6.30
2014,04,26,00,22,6.30
2014,04,26,00,23,6.30
2014,04,26,00,24,6.30
2014,04,26,00,25,6.30
2014,04,26,00,26,6.30
2014,04,26,00,27,6.30
2014,04,26,00,28,6.30
2014,04,26,00,29,6.20
2014,04,26,00,30,6.20
2014,04,26,00,31,6.20
2014,04,26,00,32,6.20
2014,04,26,00,33,6.20
2014,04,26,00,34,6.20
2014,04,26,00,35,6.20
2014,04,26,00,36,6.10
2014,04,26,00,37,6.10
2014,04,26,00,38,6.10
2014,04,26,00,39,6.10
2014,04,26,00,40,6.00
2014,04,26,00,41,6.00
2014,04,26,00,42,6.00
2014,04,26,00,43,6.00
2014,04,26,00,44,6.00
2014,04,26,00,45,5.90
2014,04,26,00,46,5.90
2014,04,26,00,47,5.90
2014,04,26,00,48,5.90
2014,04,26,00,49,5.90
2014,04,26,00,50,5.90
2014,04,26,00,51,5.90
2014,04,26,00,52,5.90
2014,04,26,00,53,5.80
2014,04,26,00,54,5.80
2014,04,26,00,55,5.80
2014,04,26,00,56,5.80
2014,04,26,00,57,5.70
2014,04,26,00,58,5.70
2014,04,26,00,59,5.70
2014,04,26,01,00,5.70
2014,04,26,01,01,5.70
2014,04,26,01,02,5.70
2014,04,26,01,03,5.70
2014,04,26,01,04,5.70
2014,04,26,01,05,5.70
2014,04,26,01,06,5.70
2014,04,26,01,07,5.60
2014,04,26,01,08,5.60
2014,04,26,01,09,5.70
2014,04,26,01,10,5.70
2014,04,26,01,11,5.70
2014,04,26,01,12,5.70
2014,04,26,01,13,5.70
2014,04,26,01,14,5.70
2014,04,26,01,15,5.70
2014,04,26,01,16,5.60
2014,04,26,01,17,5.60
2014,04,26,01,18,5.60
2014,04,26,01,19,5.60
2014,04,26,01,20,5.60
2014,04,26,01,21,5.50
2014,04,26,01,22,5.50
2014,04,26,01,23,5.50
2014,04,26,01,24,5.50
2014,04,26,01,25,5.50
2014,04,26,01,26,5.50
2014,04,26,01,27,5.60
2014,04,26,01,28,5.60
2014,04,26,01,29,5.60
2014,04,26,01,30,5.60
2014,04,26,01,31,5.70
2014,04,26,01,32,5.70
2014,04,26,01,33,5.70
2014,04,26,01,34,5.70
2014,04,26,01,35,5.70
2014,04,26,01,36,5.70
2014,04,26,01,37,5.80
2014,04,26,01,38,5.80
2014,04,26,01,39,5.90
2014,04,26,01,40,5.90
2014,04,26,01,41,5.90
2014,04,26,01,42,5.90
2014,04,26,01,43,6.00
2014,04,26,01,44,6.00
2014,04,26,01,45,6.00
2014,04,26,01,46,6.00
2014,04,26,01,47,6.00
2014,04,26,01,48,6.00
2014,04,26,01,49,6.00
2014,04,26,01,50,6.00
2014,04,26,01,51,6.00
2014,04,26,01,52,6.00
2014,04,26,01,53,6.00
2014,04,26,01,54,6.00
2014,04,26,01,55,6.00
2014,04,26,01,56,6.00
2014,04,26,01,57,6.00
2014,04,26,01,58,6.00
2014,04,26,01,59,6.00
2014,04,26,02,00,6.00
2014,04,26,02,01,6.00
2014,04,26,02,02,6.00
2014,04,26,02,03,6.00
2014,04,26,02,04,6.00
2014,04,26,02,05,6.00
2014,04,26,02,06,5.90
2014,04,26,02,07,5.90
2014,04,26,02,08,5.90
2014,04,26,02,09,5.90
2014,04,26,02,10,5.90
2014,04,26,02,11,5.90
2014,04,26,02,12,5.90
2014,04,26,02,13,5.90
2014,04,26,02,14,5.90
2014,04,26,02,15,5.90
2014,04,26,02,16,5.90
2014,04,26,02,17,5.90
2014,04,26,02,18,5.90
2014,04,26,02,19,5.90
2014,04,26,02,20,5.90
2014,04,26,02,21,5.90
2014,04,26,02,22,5.90
2014,04,26,02,23,5.90
2014,04,26,02,24,5.90
2014,04,26,02,25,5.80
2014,04,26,02,26,5.80
2014,04,26,02,27,5.80
2014,04,26,02,28,5.80
2014,04,26,02,29,5.70
2014,04,26,02,30,5.70
2014,04,26,02,31,5.70
2014,04,26,02,32,5.70
2014,04,26,02,33,5.70
2014,04,26,02,34,5.60
2014,04,26,02,35,5.60
2014,04,26,02,36,5.60
2014,04,26,02,37,5.50
2014,04,26,02,38,5.50
2014,04,26,02,39,5.50
2014,04,26,02,40,5.40
2014,04,26,02,41,5.40
2014,04,26,02,42,5.40
2014,04,26,02,43,5.40
2014,04,26,02,44,5.40
2014,04,26,02,45,5.30
2014,04,26,02,46,5.30
2014,04,26,02,47,5.30
2014,04,26,02,48,5.30
2014,04,26,02,49,5.30
2014,04,26,02,50,5.40
2014,04,26,02,51,5.40
2014,04,26,02,52,5.40
2014,04,26,02,53,5.40
2014,04,26,02,54,5.40
2014,04,26,02,55,5.50
2014,04,26,02,56,5.50
2014,04,26,02,57,5.60
2014,04,26,02,58,5.60
2014,04,26,02,59,5.60
2014,04,26,03,00,5.60
2014,04,26,03,01,5.60
2014,04,26,03,02,5.60
2014,04,26,03,03,5.50
2014,04,26,03,04,5.50
2014,04,26,03,05,5.50
2014,04,26,03,06,5.50
2014,04,26,03,07,5.50
2014,04,26,03,08,5.50
2014,04,26,03,09,5.50
2014,04,26,03,10,5.50
2014,04,26,03,11,5.50
2014,04,26,03,12,5.50
2014,04,26,03,13,5.50
2014,04,26,03,14,5.50
2014,04,26,03,15,5.50
2014,04,26,03,16,5.50
2014,04,26,03,17,5.50
2014,04,26,03,18,5.60
2014,04,26,03,19,5.60
2014,04,26,03,20,5.60
2014,04,26,03,21,5.60
2014,04,26,03,22,5.60
2014,04,26,03,23,5.60
2014,04,26,03,24,5.60
2014,04,26,03,25,5.60
2014,04,26,03,26,5.60
2014,04,26,03,27,5.60
2014,04,26,03,28,5.60
2014,04,26,03,29,5.60
2014,04,26,03,30,5.60
2014,04,26,03,31,5.60
2014,04,26,03,32,5.60
2014,04,26,03,33,5.60
2014,04,26,03,34,5.60
2014,04,26,03,35,5.60
2014,04,26,03,36,5.60
2014,04,26,03,37,5.60
2014,04,26,03,38,5.60
2014,04,26,03,39,5.60
2014,04,26,03,40,5.60
2014,04,26,03,41,5.60
2014,04,26,03,42,5.60
2014,04,26,03,43,5.70
2014,04,26,03,44,5.70
2014,04,26,03,45,5.70
2014,04,26,03,46,5.70
2014,04,26,03,47,5.70
2014,04,26,03,48,5.70
2014,04,26,03,49,5.70
2014,04,26,03,50,5.70
2014,04,26,03,51,5.70
2014,04,26,03,52,5.80
2014,04,26,03,53,5.80
2014,04,26,03,54,5.80
2014,04,26,03,55,5.90
2014,04,26,03,56,5.90
2014,04,26,03,57,6.00
2014,04,26,03,58,6.00
2014,04,26,03,59,6.00
2014,04,26,04,00,6.10
2014,04,26,04,01,6.10
2014,04,26,04,02,6.20
2014,04,26,04,03,6.20
2014,04,26,04,04,6.20
2014,04,26,04,05,6.20
2014,04,26,04,06,6.30
2014,04,26,04,07,6.30
2014,04,26,04,08,6.30
2014,04,26,04,09,6.30
2014,04,26,04,10,6.30
2014,04,26,04,11,6.30
2014,04,26,04,12,6.30
2014,04,26,04,13,6.30
2014,04,26,04,14,6.30
2014,04,26,04,15,6.30
2014,04,26,04,16,6.30
2014,04,26,04,17,6.30
2014,04,26,04,18,6.30
2014,04,26,04,19,6.30
2014,04,26,04,20,6.30
2014,04,26,04,21,6.30
2014,04,26,04,22,6.30
2014,04,26,04,23,6.30
2014,04,26,04,24,6.30
2014,04,26,04,25,6.30
2014,04,26,04,26,6.30
2014,04,26,04,27,6.30
2014,04,26,04,28,6.30
2014,04,26,04,29,6.30
2014,04,26,04,30,6.30
2014,04,26,04,31,6.30
2014,04,26,04,32,6.40
2014,04,26,04,33,6.40
2014,04,26,04,34,6.40
2014,04,26,04,35,6.40
2014,04,26,04,36,6.40
2014,04,26,04,37,6.40
2014,04,26,04,38,6.40
2014,04,26,04,39,6.40
2014,04,26,04,40,6.40
2014,04,26,04,41,6.40
2014,04,26,04,42,6.40
2014,04,26,04,43,6.40
2014,04,26,04,44,6.40
2014,04,26,04,45,6.40
2014,04,26,04,46,6.40
2014,04,26,04,47,6.30
2014,04,26,04,48,6.30
2014,04,26,04,49,6.30
2014,04,26,04,50,6.30
2014,04,26,04,51,6.30
2014,04,26,04,52,6.30
2014,04,26,04,53,6.20
2014,04,26,04,54,6.20
2014,04,26,04,55,6.20
2014,04,26,04,56,6.20
2014,04,26,04,57,6.20
2014,04,26,04,58,6.20
2014,04,26,04,59,6.20
2014,04,26,05,00,6.20
2014,04,26,05,01,6.10
2014,04,26,05,02,6.10
2014,04,26,05,03,6.10
2014,04,26,05,04,6.10
2014,04,26,05,05,6.10
2014,04,26,05,06,6.10
2014,04,26,05,07,6.10
2014,04,26,05,08,6.10
2014,04,26,05,09,6.10
2014,04,26,05,10,6.10
2014,04,26,05,11,6.10
2014,04,26,05,12,6.10
2014,04,26,05,13,6.10
2014,04,26,05,14,6.10
2014,04,26,05,15,6.10
2014,04,26,05,16,6.10
2014,04,26,05,17,6.10
2014,04,26,05,18,6.10
2014,04,26,05,19,6.10
2014,04,26,05,20,6.10
2014,04,26,05,21,6.10
2014,04,26,05,22,6.10
2014,04,26,05,23,6.10
2014,04,26,05,24,6.10
2014,04,26,05,25,6.10
2014,04,26,05,26,6.10
2014,04,26,05,27,6.10
2014,04,26,05,28,6.10
2014,04,26,05,29,6.10
2014,04,26,05,30,6.10
2014,04,26,05,31,6.20
2014,04,26,05,32,6.20
2014,04,26,05,33,6.20
2014,04,26,05,34,6.20
2014,04,26,05,35,6.20
2014,04,26,05,36,6.20
2014,04,26,05,37,6.20
2014,04,26,05,38,6.10
2014,04,26,05,39,6.10
2014,04,26,05,40,6.10
2014,04,26,05,41,6.10
2014,04,26,05,42,6.10
2014,04,26,05,43,6.10
2014,04,26,05,44,6.10
2014,04,26,05,45,6.10
2014,04,26,05,46,6.00
2014,04,26,05,47,6.00
2014,04,26,05,48,6.00
2014,04,26,05,49,6.10
2014,04,26,05,50,6.20
2014,04,26,05,51,6.20
2014,04,26,05,52,6.20
2014,04,26,05,53,6.20
2014,04,26,05,54,6.20
2014,04,26,05,55,6.20
2014,04,26,05,56,6.20
2014,04,26,05,57,6.20
2014,04,26,05,58,6.20
2014,04,26,05,59,6.20
2014,04,26,06,00,6.20
2014,04,26,06,01,6.20
2014,04,26,06,02,6.20
2014,04,26,06,03,6.20
2014,04,26,06,04,6.20
2014,04,26,06,05,6.20
2014,04,26,06,06,6.20
2014,04,26,06,07,6.20
2014,04,26,06,08,6.20
2014,04,26,06,09,6.20
2014,04,26,06,10,6.20
2014,04,26,06,11,6.20
2014,04,26,06,12,6.30
2014,04,26,06,13,6.30
2014,04,26,06,14,6.30
2014,04,26,06,15,6.30
2014,04,26,06,16,6.30
2014,04,26,06,17,6.30
2014,04,26,06,18,6.30
2014,04,26,06,19,6.20
2014,04,26,06,20,6.20
2014,04,26,06,21,6.20
2014,04,26,06,22,6.20
2014,04,26,06,23,6.20
2014,04,26,06,24,6.20
2014,04,26,06,25,6.20
2014,04,26,06,26,6.20
2014,04,26,06,27,6.20
2014,04,26,06,28,6.10
2014,04,26,06,29,6.10
2014,04,26,06,30,6.10
2014,04,26,06,31,6.20
2014,04,26,06,32,6.20
2014,04,26,06,33,6.20
2014,04,26,06,34,6.20
2014,04,26,06,35,6.20
2014,04,26,06,36,6.20
2014,04,26,06,37,6.20
2014,04,26,06,38,6.10
2014,04,26,06,39,6.10
2014,04,26,06,40,6.10
2014,04,26,06,41,6.00
2014,04,26,06,42,6.00
2014,04,26,06,43,6.00
2014,04,26,06,44,6.00
2014,04,26,06,45,5.90
2014,04,26,06,46,5.90
2014,04,26,06,47,5.90
2014,04,26,06,48,5.90
2014,04,26,06,49,5.80
2014,04,26,06,50,5.80
2014,04,26,06,51,5.70
2014,04,26,06,52,5.70
2014,04,26,06,53,5.70
2014,04,26,06,54,5.70
2014,04,26,06,55,5.70
2014,04,26,06,56,5.70
2014,04,26,06,57,5.70
2014,04,26,06,58,5.70
2014,04,26,06,59,5.70
2014,04,26,07,00,5.60
2014,04,26,07,01,5.60
2014,04,26,07,02,5.60
2014,04,26,07,03,5.60
2014,04,26,07,04,5.60
2014,04,26,07,05,5.60
2014,04,26,07,06,5.60
2014,04,26,07,07,5.60
2014,04,26,07,08,5.50
2014,04,26,07,09,5.50
2014,04,26,07,10,5.50
2014,04,26,07,11,5.50
2014,04,26,07,12,5.50
2014,04,26,07,13,5.50
2014,04,26,07,14,5.50
2014,04,26,07,15,5.50
2014,04,26,07,16,5.60
2014,04,26,07,17,5.60
2014,04,26,07,18,5.60
2014,04,26,07,19,5.60
2014,04,26,07,20,5.70
2014,04,26,07,21,5.70
2014,04,26,07,22,5.70
2014,04,26,07,23,5.80
2014,04,26,07,24,5.90
2014,04,26,07,25,6.00
2014,04,26,07,26,6.00
2014,04,26,07,27,6.10
2014,04,26,07,28,6.20
2014,04,26,07,29,6.20
2014,04,26,07,30,6.20
2014,04,26,07,31,6.20
2014,04,26,07,32,6.30
2014,04,26,07,33,6.40
2014,04,26,07,34,6.40
2014,04,26,07,35,6.50
2014,04,26,07,36,6.60
2014,04,26,07,37,6.60
2014,04,26,07,38,6.70
2014,04,26,07,39,6.80
2014,04,26,07,40,6.80
2014,04,26,07,41,6.90
2014,04,26,07,42,7.10
2014,04,26,07,43,7.20
2014,04,26,07,44,7.30
2014,04,26,07,45,7.50
2014,04,26,07,46,7.50
2014,04,26,07,47,7.60
2014,04,26,07,48,7.70
2014,04,26,07,49,7.70
2014,04,26,07,50,7.80
2014,04,26,07,51,7.80
2014,04,26,07,52,7.90
2014,04,26,07,53,7.90
2014,04,26,07,54,8.00
2014,04,26,07,55,8.10
2014,04,26,07,56,8.20
2014,04,26,07,57,8.30
2014,04,26,07,58,8.30
2014,04,26,07,59,8.40
2014,04,26,08,00,8.40
2014,04,26,08,01,8.40
2014,04,26,08,02,8.40
2014,04,26,08,03,8.40
2014,04,26,08,04,8.40
2014,04,26,08,05,8.40
2014,04,26,08,06,8.40
2014,04,26,08,07,8.30
2014,04,26,08,08,8.30
2014,04,26,08,09,8.30
2014,04,26,08,10,8.30
2014,04,26,08,11,8.30
2014,04,26,08,12,8.30
2014,04,26,08,13,8.30
2014,04,26,08,14,8.30
2014,04,26,08,15,8.30
2014,04,26,08,16,8.30
2014,04,26,08,17,8.30
2014,04,26,08,18,8.30
2014,04,26,08,19,8.30
2014,04,26,08,20,8.40
2014,04,26,08,21,8.40
2014,04,26,08,22,8.50
2014,04,26,08,23,8.50
2014,04,26,08,24,8.60
2014,04,26,08,25,8.60
2014,04,26,08,26,8.70
2014,04,26,08,27,8.70
2014,04,26,08,28,8.70
2014,04,26,08,29,8.80
2014,04,26,08,30,8.90
2014,04,26,08,31,8.90
2014,04,26,08,32,8.90
2014,04,26,08,33,9.00
2014,04,26,08,34,9.00
2014,04,26,08,35,9.00
2014,04,26,08,36,9.10
2014,04,26,08,37,9.10
2014,04,26,08,38,9.10
2014,04,26,08,39,9.20
2014,04,26,08,40,9.20
2014,04,26,08,41,9.20
2014,04,26,08,42,9.30
2014,04,26,08,43,9.40
2014,04,26,08,44,9.40
2014,04,26,08,45,9.50
2014,04,26,08,46,9.50
2014,04,26,08,47,9.50
2014,04,26,08,48,9.60
2014,04,26,08,49,9.60
2014,04,26,08,50,9.60
2014,04,26,08,51,9.60
2014,04,26,08,52,9.60
2014,04,26,08,53,9.60
2014,04,26,08,54,9.60
2014,04,26,08,55,9.70
2014,04,26,08,56,9.70
2014,04,26,08,57,9.60
2014,04,26,08,58,9.60
2014,04,26,08,59,9.60
2014,04,26,09,00,9.60
2014,04,26,09,01,9.70
2014,04,26,09,02,9.70
2014,04,26,09,03,9.70
2014,04,26,09,04,9.70
2014,04,26,09,05,9.70
2014,04,26,09,06,9.80
2014,04,26,09,07,9.80
2014,04,26,09,08,9.80
2014,04,26,09,09,9.90
2014,04,26,09,10,9.90
2014,04,26,09,11,9.90
2014,04,26,09,12,9.90
2014,04,26,09,13,9.90
2014,04,26,09,14,9.90
2014,04,26,09,15,9.90
2014,04,26,09,16,9.90
2014,04,26,09,17,9.90
2014,04,26,09,18,9.90
2014,04,26,09,19,10.10
2014,04,26,09,20,10.10
2014,04,26,09,21,10.10
2014,04,26,09,22,10.10
2014,04,26,09,23,10.10
2014,04,26,09,24,10.10
2014,04,26,09,25,10.00
2014,04,26,09,26,9.90
2014,04,26,09,27,9.90
2014,04,26,09,28,9.80
2014,04,26,09,29,9.80
2014,04,26,09,30,9.80
2014,04,26,09,31,9.90
2014,04,26,09,32,9.90
2014,04,26,09,33,10.00
2014,04,26,09,34,10.10
2014,04,26,09,35,10.10
2014,04,26,09,36,10.10
2014,04,26,09,37,10.10
2014,04,26,09,38,10.20
2014,04,26,09,39,10.20
2014,04,26,09,40,10.30
2014,04,26,09,41,10.30
2014,04,26,09,42,10.40
2014,04,26,09,43,10.40
2014,04,26,09,44,10.40
2014,04,26,09,45,10.30
2014,04,26,09,46,10.30
2014,04,26,09,47,10.40
2014,04,26,09,48,10.40
2014,04,26,09,49,10.40
2014,04,26,09,50,10.50
2014,04,26,09,51,10.60
2014,04,26,09,52,10.60
2014,04,26,09,53,10.60
2014,04,26,09,54,10.60
2014,04,26,09,55,10.60
2014,04,26,09,56,10.60
2014,04,26,09,57,10.60
2014,04,26,09,58,10.60
2014,04,26,09,59,10.60
2014,04,26,10,00,10.60
2014,04,26,10,01,10.60
2014,04,26,10,02,10.60
2014,04,26,10,03,10.70
2014,04,26,10,04,10.60
2014,04,26,10,05,10.70
2014,04,26,10,06,10.70
2014,04,26,10,07,10.70
2014,04,26,10,08,10.70
2014,04,26,10,09,10.80
2014,04,26,10,10,10.80
2014,04,26,10,11,10.80
2014,04,26,10,12,10.80
2014,04,26,10,13,10.90
2014,04,26,10,14,10.80
2014,04,26,10,15,10.70
2014,04,26,10,16,10.70
2014,04,26,10,17,10.70
2014,04,26,10,18,10.60
2014,04,26,10,19,10.60
2014,04,26,10,20,10.60
2014,04,26,10,21,10.60
2014,04,26,10,22,10.60
2014,04,26,10,23,10.60
2014,04,26,10,24,10.60
2014,04,26,10,25,10.80
2014,04,26,10,26,10.90
2014,04,26,10,27,10.90
2014,04,26,10,28,10.90
2014,04,26,10,29,10.80
2014,04,26,10,30,10.80
2014,04,26,10,31,10.90
2014,04,26,10,32,11.00
2014,04,26,10,33,11.10
2014,04,26,10,34,11.00
2014,04,26,10,35,10.90
2014,04,26,10,36,10.90
2014,04,26,10,37,10.90
2014,04,26,10,38,11.00
2014,04,26,10,39,11.10
2014,04,26,10,40,11.20
2014,04,26,10,41,11.10
2014,04,26,10,42,11.00
2014,04,26,10,43,10.90
2014,04,26,10,44,10.90
2014,04,26,10,45,10.90
2014,04,26,10,46,10.80
2014,04,26,10,47,10.80
2014,04,26,10,48,10.80
2014,04,26,10,49,10.70
2014,04,26,10,50,10.70
2014,04,26,10,51,10.70
2014,04,26,10,52,10.80
2014,04,26,10,53,10.80
2014,04,26,10,54,10.90
2014,04,26,10,55,11.00
2014,04,26,10,56,10.90
2014,04,26,10,57,10.80
2014,04,26,10,58,10.60
2014,04,26,10,59,10.60
2014,04,26,11,00,10.60
2014,04,26,11,01,10.70
2014,04,26,11,02,10.80
2014,04,26,11,03,10.70
2014,04,26,11,04,10.60
2014,04,26,11,05,10.70
2014,04,26,11,06,10.70
2014,04,26,11,07,10.60
2014,04,26,11,08,10.70
2014,04,26,11,09,10.60
2014,04,26,11,10,10.40
2014,04,26,11,11,10.30
2014,04,26,11,12,10.30
2014,04,26,11,13,10.20
2014,04,26,11,14,10.10
2014,04,26,11,15,10.10
2014,04,26,11,16,10.10
2014,04,26,11,17,10.20
2014,04,26,11,18,10.20
2014,04,26,11,19,10.20
2014,04,26,11,20,10.30
2014,04,26,11,21,10.30
2014,04,26,11,22,10.40
2014,04,26,11,23,10.40
2014,04,26,11,24,10.40
2014,04,26,11,25,10.50
2014,04,26,11,26,10.40
2014,04,26,11,27,10.30
2014,04,26,11,28,10.20
2014,04,26,11,29,10.20
2014,04,26,11,30,10.30
2014,04,26,11,31,10.30
2014,04,26,11,32,10.40
2014,04,26,11,33,10.50
2014,04,26,11,34,10.60
2014,04,26,11,35,10.60
2014,04,26,11,36,10.50
2014,04,26,11,37,10.30
2014,04,26,11,38,10.00
2014,04,26,11,39,9.90
2014,04,26,11,40,9.90
2014,04,26,11,41,9.90
2014,04,26,11,42,9.90
2014,04,26,11,43,9.80
2014,04,26,11,44,9.70
2014,04,26,11,45,9.70
2014,04,26,11,46,9.70
2014,04,26,11,47,9.70
2014,04,26,11,48,9.70
2014,04,26,11,49,9.60
2014,04,26,11,50,9.50
2014,04,26,11,51,9.50
2014,04,26,11,52,9.50
2014,04,26,11,53,9.70
2014,04,26,11,54,9.80
2014,04,26,11,55,9.80
2014,04,26,11,56,9.90
2014,04,26,11,57,9.90
2014,04,26,11,58,9.90
2014,04,26,11,59,9.90
2014,04,26,12,00,10.00
2014,04,26,12,01,10.20
2014,04,26,12,02,10.20
2014,04,26,12,03,10.20
2014,04,26,12,04,10.30
2014,04,26,12,05,10.40
2014,04,26,12,06,10.40
2014,04,26,12,07,10.30
2014,04,26,12,08,10.30
2014,04,26,12,09,10.40
2014,04,26,12,10,10.40
2014,04,26,12,11,10.40
2014,04,26,12,12,10.20
2014,04,26,12,13,10.10
2014,04,26,12,14,10.10
2014,04,26,12,15,10.10
2014,04,26,12,16,10.10
2014,04,26,12,17,10.20
2014,04,26,12,18,10.00
2014,04,26,12,19,9.90
2014,04,26,12,20,9.90
2014,04,26,12,21,9.90
2014,04,26,12,22,10.00
2014,04,26,12,23,10.10
2014,04,26,12,24,10.10
2014,04,26,12,25,10.10
2014,04,26,12,26,10.10
2014,04,26,12,27,10.00
2014,04,26,12,28,9.90
2014,04,26,12,29,9.90
2014,04,26,12,30,9.90
2014,04,26,12,31,9.80
2014,04,26,12,32,9.70
2014,04,26,12,33,9.70
2014,04,26,12,34,9.60
2014,04,26,12,35,9.70
2014,04,26,12,36,9.80
2014,04,26,12,37,9.90
2014,04,26,12,38,10.10
2014,04,26,12,39,10.10
2014,04,26,12,40,10.00
2014,04,26,12,41,9.90
2014,04,26,12,42,9.70
2014,04,26,12,43,9.50
2014,04,26,12,44,9.40
2014,04,26,12,45,9.20
2014,04,26,12,46,9.20
2014,04,26,12,47,9.30
2014,04,26,12,48,9.30
2014,04,26,12,49,9.20
2014,04,26,12,50,9.20
2014,04,26,12,51,9.20
2014,04,26,12,52,9.20
2014,04,26,12,53,9.30
2014,04,26,12,54,9.50
2014,04,26,12,55,9.50
2014,04,26,12,56,9.60
2014,04,26,12,57,9.60
2014,04,26,12,58,9.70
2014,04,26,12,59,9.60
2014,04,26,13,00,9.60
2014,04,26,13,01,9.60
2014,04,26,13,02,9.60
2014,04,26,13,03,9.60
2014,04,26,13,04,9.60
2014,04,26,13,05,9.50
2014,04,26,13,06,9.40
2014,04,26,13,07,9.50
2014,04,26,13,08,9.50
2014,04,26,13,09,9.50
2014,04,26,13,10,9.50
2014,04,26,13,11,9.50
2014,04,26,13,12,9.70
2014,04,26,13,13,9.90
2014,04,26,13,14,9.90
2014,04,26,13,15,9.90
2014,04,26,13,16,10.00
2014,04,26,13,17,10.10
2014,04,26,13,18,10.10
2014,04,26,13,19,10.10
2014,04,26,13,20,10.00
2014,04,26,13,21,9.80
2014,04,26,13,22,9.80
2014,04,26,13,23,9.90
2014,04,26,13,24,10.00
2014,04,26,13,25,10.10
2014,04,26,13,26,10.10
2014,04,26,13,27,10.30
2014,04,26,13,28,10.40
2014,04,26,13,29,10.50
2014,04,26,13,30,10.40
2014,04,26,13,31,10.30
2014,04,26,13,32,10.20
2014,04,26,13,33,10.10
2014,04,26,13,34,10.10
2014,04,26,13,35,10.10
2014,04,26,13,36,10.10
2014,04,26,13,37,10.10
2014,04,26,13,38,10.10
2014,04,26,13,39,10.30
2014,04,26,13,40,10.40
2014,04,26,13,41,10.40
2014,04,26,13,42,10.40
2014,04,26,13,43,10.60
2014,04,26,13,44,10.60
2014,04,26,13,45,10.60
2014,04,26,13,46,10.60
2014,04,26,13,47,10.50
2014,04,26,13,48,10.50
2014,04,26,13,49,10.50
2014,04,26,13,50,10.60
2014,04,26,13,51,10.50
2014,04,26,13,52,10.40
2014,04,26,13,53,10.40
2014,04,26,13,54,10.40
2014,04,26,13,55,10.40
2014,04,26,13,56,10.50
2014,04,26,13,57,10.60
2014,04,26,13,58,10.50
2014,04,26,13,59,10.40
2014,04,26,14,00,10.40
2014,04,26,14,01,10.30
2014,04,26,14,02,10.40
2014,04,26,14,03,10.40
2014,04,26,14,04,10.40
2014,04,26,14,05,10.40
2014,04,26,14,06,10.40
2014,04,26,14,07,10.60
2014,04,26,14,08,10.70
2014,04,26,14,09,10.80
2014,04,26,14,10,10.90
2014,04,26,14,11,10.90
2014,04,26,14,12,10.80
2014,04,26,14,13,10.70
2014,04,26,14,14,10.70
2014,04,26,14,15,10.80
2014,04,26,14,16,10.80
2014,04,26,14,17,10.90
2014,04,26,14,18,10.90
2014,04,26,14,19,10.90
2014,04,26,14,20,10.90
2014,04,26,14,21,10.80
2014,04,26,14,22,10.70
2014,04,26,14,23,10.80
2014,04,26,14,24,10.80
2014,04,26,14,25,10.60
2014,04,26,14,26,10.60
2014,04,26,14,27,10.60
2014,04,26,14,28,10.60
2014,04,26,14,29,10.60
2014,04,26,14,30,10.50
2014,04,26,14,31,10.40
2014,04,26,14,32,10.50
2014,04,26,14,33,10.60
2014,04,26,14,34,10.60
2014,04,26,14,35,10.60
2014,04,26,14,36,10.70
2014,04,26,14,37,10.70
2014,04,26,14,38,10.70
2014,04,26,14,39,10.70
2014,04,26,14,40,10.70
2014,04,26,14,41,10.70
2014,04,26,14,42,10.80
2014,04,26,14,43,10.90
2014,04,26,14,44,10.90
2014,04,26,14,45,10.90
2014,04,26,14,46,10.90
2014,04,26,14,47,11.10
2014,04,26,14,48,11.10
2014,04,26,14,49,11.10
2014,04,26,14,50,11.10
2014,04,26,14,51,11.10
2014,04,26,14,52,11.10
2014,04,26,14,53,11.10
2014,04,26,14,54,11.10
2014,04,26,14,55,11.10
2014,04,26,14,56,11.20
2014,04,26,14,57,11.30
2014,04,26,14,58,11.40
2014,04,26,14,59,11.40
2014,04,26,15,00,11.40
2014,04,26,15,01,11.30
2014,04,26,15,02,11.30
2014,04,26,15,03,11.20
2014,04,26,15,04,11.10
2014,04,26,15,05,11.10
2014,04,26,15,06,11.20
2014,04,26,15,07,11.40
2014,04,26,15,08,11.40
2014,04,26,15,09,11.40
2014,04,26,15,10,11.30
2014,04,26,15,11,11.40
2014,04,26,15,12,11.50
2014,04,26,15,13,11.50
2014,04,26,15,14,11.40
2014,04,26,15,15,11.40
2014,04,26,15,16,11.50
2014,04,26,15,17,11.40
2014,04,26,15,18,11.50
2014,04,26,15,19,11.60
2014,04,26,15,20,11.60
2014,04,26,15,21,11.70
2014,04,26,15,22,11.80
2014,04,26,15,23,11.80
2014,04,26,15,24,11.80
2014,04,26,15,25,11.90
2014,04,26,15,26,11.90
2014,04,26,15,27,11.90
2014,04,26,15,28,11.90
2014,04,26,15,29,12.10
2014,04,26,15,30,12.30
2014,04,26,15,31,12.40
2014,04,26,15,32,12.50
2014,04,26,15,33,12.40
2014,04,26,15,34,12.40
2014,04,26,15,35,12.50
2014,04,26,15,36,12.50
2014,04,26,15,37,12.50
2014,04,26,15,38,12.50
2014,04,26,15,39,12.50
2014,04,26,15,40,12.30
2014,04,26,15,41,12.10
2014,04,26,15,42,12.10
2014,04,26,15,43,12.10
2014,04,26,15,44,12.20
2014,04,26,15,45,12.40
2014,04,26,15,46,12.60
2014,04,26,15,47,12.80
2014,04,26,15,48,13.00
2014,04,26,15,49,13.20
2014,04,26,15,50,13.30
2014,04,26,15,51,13.20
2014,04,26,15,52,13.10
2014,04,26,15,53,13.00
2014,04,26,15,54,12.90
2014,04,26,15,55,13.00
2014,04,26,15,56,13.00
2014,04,26,15,57,12.90
2014,04,26,15,58,12.80
2014,04,26,15,59,12.80
2014,04,26,16,00,12.90
2014,04,26,16,01,12.90
2014,04,26,16,02,12.90
2014,04,26,16,03,13.00
2014,04,26,16,04,13.00
2014,04,26,16,05,13.10
2014,04,26,16,06,13.20
2014,04,26,16,07,13.30
2014,04,26,16,08,13.20
2014,04,26,16,09,13.20
2014,04,26,16,10,13.10
2014,04,26,16,11,13.10
2014,04,26,16,12,13.10
2014,04,26,16,13,13.20
2014,04,26,16,14,13.30
2014,04,26,16,15,13.30
2014,04,26,16,16,13.40
2014,04,26,16,17,13.30
2014,04,26,16,18,13.30
2014,04,26,16,19,13.30
2014,04,26,16,20,13.20
2014,04,26,16,21,13.20
2014,04,26,16,22,13.10
2014,04,26,16,23,13.10
2014,04,26,16,24,13.20
2014,04,26,16,25,13.10
2014,04,26,16,26,13.00
2014,04,26,16,27,12.90
2014,04,26,16,28,12.90
2014,04,26,16,29,13.00
2014,04,26,16,30,12.90
2014,04,26,16,31,12.90
2014,04,26,16,32,12.90
2014,04,26,16,33,12.90
2014,04,26,16,34,12.80
2014,04,26,16,35,12.80
2014,04,26,16,36,12.80
2014,04,26,16,37,12.70
2014,04,26,16,38,12.60
2014,04,26,16,39,12.60
2014,04,26,16,40,12.60
2014,04,26,16,41,12.60
2014,04,26,16,42,12.50
2014,04,26,16,43,12.50
2014,04,26,16,44,12.50
2014,04,26,16,45,12.50
2014,04,26,16,46,12.50
2014,04,26,16,47,12.40
2014,04,26,16,48,12.40
2014,04,26,16,49,12.30
2014,04,26,16,50,12.30
2014,04,26,16,51,12.30
2014,04,26,16,52,12.20
2014,04,26,16,53,12.20
2014,04,26,16,54,12.20
2014,04,26,16,55,12.20
2014,04,26,16,56,12.20
2014,04,26,16,57,12.20
2014,04,26,16,58,12.30
2014,04,26,16,59,12.30
2014,04,26,17,00,12.30
2014,04,26,17,01,12.40
2014,04,26,17,02,12.40
2014,04,26,17,03,12.40
2014,04,26,17,04,12.40
2014,04,26,17,05,12.40
2014,04,26,17,06,12.30
2014,04,26,17,07,12.30
2014,04,26,17,08,12.40
2014,04,26,17,09,12.40
2014,04,26,17,10,12.40
2014,04,26,17,11,12.40
2014,04,26,17,12,12.40
2014,04,26,17,13,12.30
2014,04,26,17,14,12.30
2014,04,26,17,15,12.20
2014,04,26,17,16,12.20
2014,04,26,17,17,12.10
2014,04,26,17,18,12.10
2014,04,26,17,19,12.20
2014,04,26,17,20,12.20
2014,04,26,17,21,12.30
2014,04,26,17,22,12.30
2014,04,26,17,23,12.30
2014,04,26,17,24,12.30
2014,04,26,17,25,12.30
2014,04,26,17,26,12.40
2014,04,26,17,27,12.40
2014,04,26,17,28,12.30
2014,04,26,17,29,12.30
2014,04,26,17,30,12.30
2014,04,26,17,31,12.30
2014,04,26,17,32,12.40
2014,04,26,17,33,12.40
2014,04,26,17,34,12.40
2014,04,26,17,35,12.40
2014,04,26,17,36,12.50
2014,04,26,17,37,12.50
2014,04,26,17,38,12.50
2014,04,26,17,39,12.50
2014,04,26,17,40,12.50
2014,04,26,17,41,12.50
2014,04,26,17,42,12.50
2014,04,26,17,43,12.50
2014,04,26,17,44,12.50
2014,04,26,17,45,12.50
2014,04,26,17,46,12.40
2014,04,26,17,47,12.30